EW1914 Weather Reports


Display with metric or nautical units.
time (UTC)temp
F
wind
direction
speed
MPH
gust
MPH
rain 1hr
in
rain 24hr
in
rain mn
in
humidity
%
barometer
mb
20210613214002 65 106 1.0 4.0 0.23 0.75 0.59 94 1010.9
20210613213004 65 180 2.0 9.0 0.21 0.72 0.56 94 1010.7
20210613212002 65 106 1.0 3.0 0.18 0.69 0.53 93 1010.7
20210613211003 65 180 1.0 3.0 0.15 0.66 0.50 92 1010.8
20210613210007 65 180 1.0 4.0 0.11 0.62 0.46 92 1011.0
20210613205004 66 118 0.0 2.0 0.03 0.54 0.38 92 1010.9
20210613204002 66 108 1.0 3.0 0.01 0.52 0.36 92 1010.6
20210613203005 66 95 0.0 2.0 0.00 0.51 0.35 92 1010.6
20210613202002 66 180 0.0 1.0 0.00 0.51 0.35 92 1010.6
20210613201003 66 105 0.0 1.0 0.00 0.51 0.35 92 1010.5
20210613200006 66 104 1.0 3.0 0.00 0.51 0.35 93 1010.6
20210613195002 66 341 0.0 1.0 0.00 0.51 0.35 93 1010.6
20210613194022 66 341 0.0 2.0 0.00 0.51 0.35 94 1010.4
20210613193006 65 180 0.0 0.0 0.00 0.51 0.35 93 1010.4
20210613192004 65 180 0.0 1.0 0.00 0.51 0.35 95 1010.4
20210613191021 65 180 0.0 1.0 0.00 0.51 0.35 95 1010.4
20210613190006 65 180 0.0 1.0 0.00 0.51 0.35 95 1010.5
20210613185002 65 180 0.0 0.0 0.00 0.51 0.35 95 1010.7
20210613184003 65 180 0.0 0.0 0.00 0.51 0.35 95 1010.6
20210613183009 65 180 0.0 2.0 0.00 0.51 0.35 95 1010.4
20210613181003 64 180 0.0 2.0 0.00 0.51 0.35 96 1010.5
20210613180006 64 66 0.0 2.0 0.00 0.51 0.35 96 1010.5
20210613175003 64 97 0.0 0.0 0.00 0.51 0.35 96 1010.6
20210613174003 64 97 1.0 3.0 0.00 0.51 0.35 96 1010.6
20210613173007 64 180 0.0 1.0 0.00 0.51 0.35 96 1010.5
20210613172001 64 180 0.0 1.0 0.00 0.51 0.35 96 1010.6
20210613171002 64 180 0.0 0.0 0.00 0.51 0.35 96 1010.8
20210613170008 64 180 0.0 0.0 0.00 0.51 0.35 96 1010.8
20210613165003 63 180 0.0 0.0 0.00 0.51 0.35 96 1010.9
20210613164021 63 180 0.0 1.0 0.01 0.51 0.35 96 1010.7
20210613163004 63 180 0.0 2.0 0.01 0.51 0.35 96 1011.0
20210613162003 63 180 0.0 2.0 0.01 0.51 0.35 96 1010.9
20210613161001 63 75 0.0 2.0 0.01 0.51 0.35 96 1011.0
20210613160006 63 72 0.0 2.0 0.01 0.51 0.35 96 1011.1
20210613155002 63 72 1.0 4.0 0.02 0.51 0.35 96 1011.3
20210613154002 63 88 2.0 5.0 0.01 0.50 0.34 96 1011.2
20210613153028 63 131 2.0 5.0 0.01 0.50 0.34 96 1011.1
20210613152003 63 106 1.0 4.0 0.01 0.50 0.34 96 1011.0
20210613151004 63 180 2.0 5.0 0.01 0.50 0.34 96 1010.9
20210613150007 63 180 1.0 8.0 0.01 0.50 0.34 96 1011.1
20210613145022 63 92 1.0 6.0 0.01 0.49 0.33 96 1011.1
20210613144021 63 89 2.0 5.0 0.01 0.49 0.33 96 1011.0
20210613143005 63 82 2.0 5.0 0.01 0.49 0.33 96 1010.9
20210613142002 62 93 1.0 3.0 0.01 0.49 0.33 96 1011.2
20210613141002 62 86 1.0 4.0 0.01 0.49 0.33 96 1011.3
20210613140007 62 98 0.0 3.0 0.01 0.49 0.33 96 1011.0
20210613135002 62 79 1.0 3.0 0.00 0.48 0.32 96 1010.8
20210613134021 62 105 1.0 3.0 0.00 0.48 0.32 96 1010.9
20210613133004 62 112 1.0 3.0 0.00 0.48 0.32 96 1010.7
20210613132001 62 180 1.0 4.0 0.00 0.48 0.32 96 1010.6
20210613131005 62 104 0.0 2.0 0.00 0.48 0.32 95 1010.6
20210613130008 62 268 0.0 0.0 0.00 0.48 0.32 95 1010.5
20210613125003 62 268 0.0 0.0 0.01 0.48 0.32 95 1010.5
20210613124020 62 180 0.0 0.0 0.01 0.48 0.32 95 1010.4
20210613123004 62 180 0.0 0.0 0.01 0.48 0.32 95 1010.4
20210613122002 62 268 0.0 0.0 0.02 0.48 0.32 95 1010.4
20210613121002 62 180 0.0 0.0 0.02 0.48 0.32 95 1010.3
20210613120030 62 277 0.0 0.0 0.03 0.48 0.32 95 1010.3
20210613115002 62 180 0.0 2.0 0.03 0.47 0.31 95 1010.4
20210613114002 62 97 0.0 3.0 0.05 0.47 0.31 95 1010.3
20210613113006 62 180 1.0 3.0 0.07 0.47 0.31 95 1010.2
20210613112002 62 90 0.0 3.0 0.07 0.46 0.30 95 1010.2
20210613111002 62 92 1.0 3.0 0.07 0.45 0.29 95 1010.3
20210613110005 62 101 2.0 5.0 0.09 0.45 0.29 95 1010.4
20210613105002 63 180 3.0 9.0 0.09 0.44 0.28 95 1010.4
20210613104003 63 89 3.0 9.0 0.08 0.42 0.26 95 1010.5
20210613103003 63 87 4.0 10.0 0.06 0.40 0.24 95 1010.5
20210613102002 63 180 5.0 10.0 0.06 0.39 0.23 95 1010.5
20210613101002 63 180 2.0 6.0 0.05 0.38 0.22 95 1010.5
20210613100007 63 106 3.0 7.0 0.04 0.36 0.20 95 1010.4
20210613095003 63 130 2.0 8.0 0.04 0.35 0.19 95 1010.4
20210613094002 63 110 1.0 3.0 0.04 0.34 0.18 95 1010.5
20210613093009 62 107 1.0 3.0 0.06 0.34 0.18 95 1010.4
20210613092021 62 124 0.0 2.0 0.08 0.33 0.17 95 1010.5
20210613091001 62 106 0.0 3.0 0.10 0.33 0.17 94 1010.4
20210613090005 62 120 0.0 3.0 0.11 0.32 0.16 94 1010.3
20210613085002 62 180 0.0 3.0 0.12 0.31 0.15 94 1010.4
20210613084001 62 86 0.0 3.0 0.12 0.30 0.14 94 1010.4
20210613083005 62 106 0.0 3.0 0.10 0.28 0.12 94 1010.4
20210613082003 62 93 0.0 2.0 0.08 0.25 0.09 94 1010.4
20210613081002 62 180 0.0 3.0 0.07 0.23 0.07 94 1010.4
20210613080004 63 180 1.0 6.0 0.05 0.21 0.05 93 1010.4
20210613075022 63 93 3.0 6.0 0.04 0.19 0.03 93 1010.6
20210613074002 63 90 2.0 6.0 0.04 0.18 0.02 94 1010.5
20210613073004 63 86 2.0 7.0 0.04 0.17 0.01 94 1010.3
20210613072003 63 180 1.0 7.0 0.06 0.17 0.01 94 1010.3
20210613071002 63 88 1.0 3.0 0.07 0.16 0.00 93 1010.3
20210613070007 63 180 1.0 3.0 0.08 0.16 0.00 93 1010.2
20210613065004 63 90 1.0 3.0 0.08 0.15 0.15 93 1010.5
20210613064002 63 180 2.0 4.0 0.08 0.14 0.14 93 1010.5
20210613063004 64 180 2.0 6.0 0.08 0.13 0.13 93 1010.6
20210613062002 64 180 1.0 4.0 0.06 0.11 0.11 93 1010.8
20210613061003 64 180 0.0 0.0 0.04 0.09 0.09 92 1010.6
20210613060006 64 180 0.0 1.0 0.03 0.08 0.08 92 1010.6
20210613055002 64 180 0.0 2.0 0.04 0.07 0.07 92 1010.4
20210613054003 64 70 0.0 2.0 0.03 0.06 0.06 92 1010.5
20210613053007 64 78 1.0 3.0 0.03 0.05 0.05 91 1010.5
20210613052003 64 79 0.0 4.0 0.04 0.05 0.05 91 1010.6
20210613051003 64 87 0.0 2.0 0.05 0.05 0.05 91 1010.4
20210613050004 65 180 0.0 1.0 0.04 0.04 0.04 90 1010.4
20210613045020 65 87 0.0 1.0 0.04 0.04 0.04 90 1010.6
20210613044002 65 180 0.0 2.0 0.03 0.03 0.03 90 1010.9
20210613043004 65 180 0.0 0.0 0.02 0.02 0.02 89 1010.5
20210613042003 65 180 0.0 0.0 0.01 0.01 0.01 89 1010.3
20210613041002 66 309 0.0 0.0 0.00 0.00 0.00 87 1010.0
20210613040007 66 309 0.0 4.0 0.00 0.00 0.00 87 1010.1
20210613035002 67 310 0.0 4.0 0.00 0.00 0.00 87 1010.3
20210613034021 67 302 1.0 3.0 0.00 0.00 0.00 87 1010.0
20210613033006 67 180 0.0 2.0 0.00 0.00 0.00 86 1009.8
20210613032003 68 58 0.0 2.0 0.00 0.00 0.00 85 1009.1
20210613031002 68 312 0.0 1.0 0.00 0.00 0.00 84 1008.8
20210613030006 68 312 0.0 0.0 0.00 0.00 0.00 83 1008.9
20210613025001 69 312 0.0 1.0 0.00 0.00 0.00 82 1008.5
20210613024001 70 312 0.0 0.0 0.00 0.00 0.00 80 1008.3
20210613023006 70 312 0.0 1.0 0.00 0.00 0.00 79 1008.2
20210613022001 71 312 0.0 0.0 0.00 0.00 0.00 77 1008.2
20210613021002 71 312 0.0 1.0 0.00 0.00 0.00 74 1008.5
20210613020007 72 312 0.0 1.0 0.00 0.00 0.00 70 1008.8
20210613013004 75 299 4.0 9.0 0.00 0.00 0.00 58 1008.9
20210613012001 75 309 2.0 9.0 0.00 0.00 0.00 54 1008.4
20210613011002 75 180 1.0 6.0 0.00 0.00 0.00 54 1008.2
20210613010026 76 293 0.0 3.0 0.00 0.00 0.00 54 1008.1
20210613005002 76 349 0.0 3.0 0.00 0.00 0.00 53 1008.2
20210613004002 76 180 2.0 9.0 0.00 0.00 0.00 52 1008.6
20210613003005 77 313 1.0 7.0 0.00 0.00 0.00 51 1008.7
20210613002003 77 308 1.0 5.0 0.00 0.00 0.00 53 1008.8
20210613001002 77 306 1.0 4.0 0.00 0.00 0.00 54 1008.9
20210613000003 77 324 1.0 3.0 0.00 0.00 0.00 52 1009.1
20210612235003 77 180 1.0 4.0 0.00 0.00 0.00 50 1009.3
20210612234002 77 180 1.0 4.0 0.00 0.00 0.00 52 1009.5
20210612233003 77 333 1.0 3.0 0.00 0.00 0.00 52 1009.6
20210612232001 77 180 1.0 5.0 0.00 0.00 0.00 52 1010.1
20210612231001 77 180 0.0 3.0 0.00 0.00 0.00 52 1010.1
20210612230004 77 180 1.0 5.0 0.00 0.00 0.00 51 1010.3
20210612225002 78 77 1.0 3.0 0.00 0.00 0.00 50 1010.3
20210612224002 78 33 0.0 2.0 0.00 0.00 0.00 50 1010.4
20210612223006 78 28 1.0 3.0 0.00 0.00 0.00 50 1010.4
20210612222002 78 180 1.0 3.0 0.00 0.00 0.00 48 1010.5
20210612221002 78 180 2.0 9.0 0.00 0.00 0.00 49 1010.6
20210612220006 77 180 1.0 5.0 0.00 0.00 0.00 51 1010.7
20210612215008 77 241 1.0 4.0 0.00 0.00 0.00 51 1010.8